Montreal-Pierre Elliott T, Canada

9:59 PM EDT on August 23, 2016 (GMT -0400)
Montreal International (Dorval)

Weather History for CYUL - January, 2008

Change the Weather History Date:

Friday, January 4, 2008

  Actual Average Record
Temperature  
Mean Temperature 13 °F -  
Max Temperature 28 °F 23 °F 50 °F (2007)
Min Temperature -2 °F 10 °F -11 °F (2014)
Degree Days  
Heating Degree Days 52    
Moisture  
Dew Point 15 °F    
Average Humidity 77    
Maximum Humidity 93    
Minimum Humidity 47    
Precipitation  
Precipitation 0.04 in - - ()
Sea Level Pressure  
Sea Level Pressure 30.31 in    
Wind  
Wind Speed 10 mph ()    
Max Wind Speed 18 mph    
Max Gust Speed 25 mph    
Visibility 8.3 miles    
Events Snow    
Averages and records for this station are not official NWS values.
T = Trace of Precipitation, MM = Missing Value Source: Averaged Metar Reports

Daily Weather History Graph

Daily Weather History Graph

Search for Another Location

Airport or City:

Trip Planner

Search our weather history database for the weather conditions in past years. The results will help you decide how hot, cold, wet, or windy it might be!

Date:

Astronomy

Jan. 04, 2008 Rise Set
Actual Time 7:34 AM EST 4:24 PM EST
Civil Twilight 7:01 AM EST 4:58 PM EST
Nautical Twilight 6:23 AM EST 5:35 PM EST
Astronomical Twilight 5:47 AM EST 6:11 PM EST
Moon 4:29 AM EST (1/4) 12:57 PM EST (1/4)
Length of Visible Light 9h 57m
Length of Day
8h 49m
Waning Crescent, 13% of the Moon is Illuminated
Jan 4
Waning Crescent
Jan 8
New
Jan 15
First Quarter
Jan 22
Full
Jan 30
Last Quarter

Hourly Weather History & Observations

Time (EST) Temp. Windchill Dew Point Humidity Pressure Visibility Wind Dir Wind Speed Gust Speed Precip Events Conditions
12:00 AM 5.0 °F -10.0 °F -5.8 °F 61% 30.47 in 15.0 mi SSE 10.4 mph - N/A Snow Light Snow
12:40 AM 5.0 °F -10.0 °F - N/A% - 15.0 mi SSE 10.4 mph - N/A   Overcast
1:00 AM 6 °F - -5 °F 47% 30.42 in 15 mi SSE 11.5 mph - - Snow Light Snow
1:00 AM 6.8 °F -9.3 °F -4.0 °F 61% 30.42 in 15.0 mi SSE 12.7 mph - N/A   Overcast
2:00 AM 8.6 °F -8.3 °F -2.2 °F 62% 30.38 in 15.0 mi SSE 15.0 mph - N/A   Overcast
2:25 AM 8.6 °F -8.3 °F - N/A% - 15.0 mi SSE 15.0 mph - N/A Snow Light Snow
3:00 AM 8.6 °F -8.3 °F 1.4 °F 73% 30.34 in 6.0 mi SSE 15.0 mph - N/A Snow Light Snow
3:36 AM 8.6 °F -2.6 °F - N/A% - 2.5 mi SSE 6.9 mph - N/A Snow Light Snow
3:48 AM 10.4 °F 2.2 °F - N/A% - 2.0 mi SSE 4.6 mph - N/A Snow Light Snow
4:00 AM 10.4 °F 2.2 °F 5.0 °F 79% 30.33 in 2.0 mi SE 4.6 mph - N/A Snow Light Snow
5:00 AM 10.4 °F -1.5 °F 6.8 °F 85% 30.30 in 2.0 mi South 8.1 mph - N/A Snow Light Snow
6:00 AM 14.0 °F 5.1 °F 10.4 °F 86% 30.29 in 1.5 mi SSE 5.8 mph - N/A Snow Light Snow
7:00 AM 16 °F - 14 °F 86% 30.30 in 2 mi SSW 2.3 mph - - Snow Light Snow
7:00 AM 15.8 °F 10.2 °F 14.0 °F 93% 30.30 in 2.0 mi SSW 3.5 mph - N/A Snow Light Snow
8:00 AM 15.8 °F - 14.0 °F 93% 30.30 in 3.0 mi West 2.3 mph - N/A Snow Light Snow
8:49 AM 21.2 °F - - N/A% - 2.5 mi West 2.3 mph - N/A Snow Light Snow
9:00 AM 23.0 °F 10.1 °F 19.4 °F 86% 30.30 in 1.5 mi WSW 15.0 mph - N/A Snow Light Snow
9:46 AM 24.8 °F 11.1 °F - N/A% - 3.0 mi WSW 18.4 mph - N/A Snow Light Snow
10:00 AM 24.8 °F 12.9 °F 19.4 °F 80% 30.31 in 4.0 mi WSW 13.8 mph 25.3 mph N/A Snow Light Snow
11:00 AM 24.8 °F 11.1 °F 19.4 °F 80% 30.30 in 10.0 mi WSW 18.4 mph 24.2 mph N/A Snow Light Snow Showers
12:00 PM 24.8 °F 11.9 °F 19.4 °F 80% 30.28 in 10.0 mi WSW 16.1 mph 24.2 mph N/A Snow Low Drifting Snow
1:00 PM 26 °F - 20 °F 70% 30.28 in 10 mi WSW 17.3 mph - - Snow Light Snow Showers
1:00 PM 26.6 °F 13.8 °F 19.4 °F 74% 30.28 in 10.0 mi WSW 17.3 mph 23.0 mph N/A Snow Light Snow Showers
2:00 PM 26.6 °F 13.8 °F 21.2 °F 80% 30.28 in 10.0 mi WSW 17.3 mph 23.0 mph N/A Snow Light Snow Showers
3:00 PM 26.6 °F 14.3 °F 21.2 °F 80% 30.27 in 10.0 mi WSW 16.1 mph 21.9 mph N/A Snow Light Snow Showers
3:42 PM 26.6 °F 14.3 °F - N/A% - 12.0 mi WSW 16.1 mph - N/A   Mostly Cloudy
4:00 PM 26.6 °F 14.7 °F 21.2 °F 80% 30.28 in 15.0 mi WSW 15.0 mph - N/A   Overcast
5:00 PM 26.6 °F 16.8 °F 21.2 °F 80% 30.29 in 10.0 mi WSW 10.4 mph - N/A   Overcast
6:00 PM 26.6 °F 16.2 °F 23.0 °F 86% 30.29 in 10.0 mi SW 11.5 mph - N/A   Overcast
7:00 PM 28 °F - 22 °F 69% 30.30 in 10 mi WSW 11.5 mph - -   Partly Cloudy
7:00 PM 28.4 °F 18.5 °F 21.2 °F 74% 30.30 in 10.0 mi WSW 11.5 mph - N/A   Overcast
8:00 PM 28.4 °F 19.7 °F 23.0 °F 80% 30.30 in 10.0 mi WSW 9.2 mph - N/A   Overcast
9:00 PM 28.4 °F 18.5 °F 23.0 °F 80% 30.29 in 10.0 mi WSW 11.5 mph - N/A   Overcast
10:00 PM 28.4 °F 19.1 °F 23.0 °F 80% 30.28 in 10.0 mi WSW 10.4 mph - N/A   Overcast
11:00 PM 28.4 °F 19.7 °F 23.0 °F 80% 30.28 in 10.0 mi WSW 9.2 mph - N/A   Overcast